Regional Weather Roundup
Issued by NWS Cleveland, OH

Home | Current Version | Previous Version | Text Only | Print | Product List | Glossary Off
Versions: 1 2 3 4 5 6 7 8 9 10 11 12 13 14 15 16 17 18 19 20 21 22 23 24 25 26 27 28 29 30 31 32 33 34 35 36 37 38 39 40 41 42 43 44 45 46 47 48 49 50

000
ASUS41 KCLE 012010
RWRCLE
OHIO REGIONAL WEATHER ROUNDUP
NATIONAL WEATHER SERVICE CLEVELAND, OH
400 PM EDT SAT AUG 01 2015

NOTE: "FAIR" INDICATES FEW OR NO CLOUDS BELOW 12,000 FEET WITH NO
SIGNIFICANT WEATHER AND/OR OBSTRUCTIONS TO VISIBILITY.

OHZ001>008-015>018-024>027-034-035-043-044-012100-
   NORTHWEST OHIO

CITY           SKY/WX    TMP DP  RH WIND       PRES   REMARKS
DEFIANCE       MOSUNNY   84  52  33 W8G18     29.94F
FINDLAY        PTSUNNY   84  53  34 W15G22    29.94F
TOLEDO EXPRESS MOSUNNY   82  52  35 W13       29.92F
TOLEDO EXEC    SUNNY     84  52  33 W16G24    29.92F
LIMA           MOSUNNY   81  54  39 W15       29.96F
$$

OHZ009>014-019>023-028>033-038-089-012100-
   NORTHEAST OHIO

CITY           SKY/WX    TMP DP  RH WIND       PRES   REMARKS
CLE-HOPKINS    MOSUNNY   82  51  34 W9G18     29.94F
CLE-LAKEFRONT  SUNNY     80  58  46 W12       29.91F
CUY CO. ARPT   MOSUNNY   81  57  44 NW12      29.94S
LORAIN-ELYRIA  MOSUNNY   78  53  41 W14       29.94F
ASHTABULA      SUNNY     80  52  37 NW12      29.92F
AKRON-CANTON   MOSUNNY   81  53  37 W13       29.94S
WOOSTER        MOSUNNY   81  56  42 W10G18    29.95S
MANSFIELD      MOSUNNY   81  52  36 W9G18     29.96F
YOUNGSTOWN     MOSUNNY   81  53  37 NW13G21   29.92F
$$

OHZ042-051>053-060>062-070>072-077>081-012100-
  SOUTHWEST OHIO

CITY           SKY/WX    TMP DP  RH WIND       PRES   REMARKS
CINC-COVINGTON PTSUNNY   83  57  41 N8        29.99F
CINC-LUNKEN    MOSUNNY   83  57  41 N9        29.98F
HAMILTON       PTSUNNY   84  56  38 W7        29.99F
DAYTON         MOSUNNY   81  56  42 N6G18     29.99F
WRIGHT-PAT AFB NOT AVBL
DAYTON GENERAL PTSUNNY   82  53  36 W9        29.98F
WILMINGTON     PTSUNNY   80  54  40 N8        29.99S
$$

OHZ036-037-039>041-045>050-054>059-063>069-073>076-082>088-012100-
  CENTRAL AND SOUTHEAST OHIO

CITY           SKY/WX    TMP DP  RH WIND       PRES   REMARKS
COLUMBUS       MOSUNNY   84  54  35 NW10G18   29.95F
OSU AIRPORT    MOSUNNY   80  54  40 NW7       29.96F
BOLTON FIELD   MOSUNNY   81  59  47 NW9       29.97F
RICKENBACK AFB MOSUNNY   81  56  42 W12       29.95F
NEWARK         SUNNY     83  53  35 W14       29.95F
MARION         MOSUNNY   83  51  33 W10       29.96F
LANCASTER      MOSUNNY   82  57  42 W10       29.96F
ZANESVILLE     MOSUNNY   83  53  35 W9        29.95F
NEW PHILLY     PTSUNNY   79  55  43 W8        29.94F
$$



USA.gov is the U.S. government's official web portal to all federal, state and local government web resources and services.